TimeCST,TemperatureF,Dew PointF,Humidity,Sea Level PressureIn,VisibilityMPH,Wind Direction,Wind SpeedMPH,Gust SpeedMPH,PrecipitationIn,Events,Conditions,WindDirDegrees,DateUTC
12:54 AM,35.1,30.9,85,30.10,7.0,SE,17.3,-,0.00,Rain,Light Rain,140,2013-03-09 06:54:00
1:54 AM,35.1,30.9,85,30.08,6.0,SE,11.5,-,0.00,,Overcast,130,2013-03-09 07:54:00
2:54 AM,35.6,30.2,81,30.04,7.0,SE,8.1,-,N/A,,Overcast,130,2013-03-09 08:54:00
3:54 AM,35.1,32.0,89,30.06,4.0,SSE,10.4,16.1,0.03,Rain,Rain,150,2013-03-09 09:54:00
4:54 AM,35.1,33.1,92,30.03,3.0,SE,16.1,-,0.17,Rain,Rain,140,2013-03-09 10:54:00
5:06 AM,35.6,33.8,93,29.99,3.0,SE,18.4,-,0.04,Rain,Rain,140,2013-03-09 11:06:00
5:21 AM,35.6,33.8,93,29.99,3.0,SSE,13.8,23.0,0.07,Rain,Light Rain,150,2013-03-09 11:21:00
5:47 AM,35.6,33.8,93,29.97,2.5,SE,19.6,25.3,0.14,Rain,Rain,140,2013-03-09 11:47:00
5:54 AM,35.1,33.1,92,30.00,3.0,SE,16.1,25.3,0.14,Rain,Light Rain,140,2013-03-09 11:54:00
6:54 AM,35.1,34.0,96,29.98,4.0,SSE,18.4,-,0.01,Rain,Light Rain,150,2013-03-09 12:54:00
7:08 AM,35.6,33.8,93,29.95,2.5,SSE,16.1,24.2,0.01,Rain,Light Rain,150,2013-03-09 13:08:00
7:20 AM,35.6,33.8,93,29.95,3.0,SSE,16.1,-,0.01,,Overcast,150,2013-03-09 13:20:00
7:54 AM,35.1,34.0,96,29.96,3.0,SSE,20.7,26.5,0.01,,Overcast,150,2013-03-09 13:54:00
8:01 AM,35.6,33.8,93,29.94,2.0,SSE,18.4,26.5,N/A,,Overcast,160,2013-03-09 14:01:00
8:51 AM,35.6,33.8,93,29.91,3.0,SSE,15.0,25.3,0.00,,Overcast,150,2013-03-09 14:51:00
8:54 AM,35.1,34.0,96,29.94,3.0,SSE,17.3,23.0,0.00,,Overcast,160,2013-03-09 14:54:00
9:19 AM,35.6,33.8,93,29.92,2.0,SSE,13.8,23.0,0.00,,Overcast,160,2013-03-09 15:19:00
9:26 AM,35.6,33.8,93,29.92,1.2,SSE,13.8,23.0,0.00,Snow,Light Snow,160,2013-03-09 15:26:00
9:54 AM,35.1,34.0,96,29.92,2.5,SSE,12.7,21.9,0.01,Rain,Light Rain,150,2013-03-09 15:54:00
10:15 AM,35.6,33.8,93,29.89,1.2,SSE,16.1,23.0,0.00,,Overcast,150,2013-03-09 16:15:00
10:54 AM,35.1,34.0,96,29.88,1.8,SSE,17.3,26.5,0.01,Rain,Light Rain,150,2013-03-09 16:54:00
11:02 AM,35.6,33.8,93,29.85,2.0,SSE,16.1,-,0.00,Rain,Light Rain,150,2013-03-09 17:02:00
11:54 AM,36.0,35.1,97,29.86,2.5,SSE,16.1,26.5,0.02,Rain,Light Rain,150,2013-03-09 17:54:00
12:11 PM,35.6,35.6,100,29.84,4.0,SSE,16.1,-,0.02,Rain,Light Rain,160,2013-03-09 18:11:00
12:54 PM,36.0,35.1,97,29.83,3.0,SSE,18.4,24.2,0.07,Rain,Rain,150,2013-03-09 18:54:00
1:54 PM,36.0,35.1,97,29.78,4.0,SSE,16.1,21.9,0.08,Rain,Light Rain,150,2013-03-09 19:54:00
2:54 PM,36.0,35.1,97,29.76,5.0,SSE,13.8,-,0.04,Rain,Light Rain,150,2013-03-09 20:54:00
3:05 PM,35.6,35.6,100,29.73,2.0,SSE,15.0,23.0,0.03,Rain,Rain,150,2013-03-09 21:05:00
3:47 PM,35.6,35.6,100,29.73,1.8,SSE,13.8,-,0.08,Rain,Light Rain,160,2013-03-09 21:47:00
3:54 PM,36.0,35.1,97,29.76,2.0,SSE,11.5,-,0.09,Rain,Light Rain,160,2013-03-09 21:54:00
4:15 PM,35.6,35.6,100,29.75,3.0,South,12.7,-,0.01,,Overcast,170,2013-03-09 22:15:00
4:39 PM,35.6,35.6,100,29.74,2.5,SSE,12.7,-,0.02,Rain,Light Rain,160,2013-03-09 22:39:00
4:54 PM,36.0,35.1,97,29.75,2.5,SE,10.4,-,0.02,Rain,Light Rain,140,2013-03-09 22:54:00
5:07 PM,35.6,35.6,100,29.74,3.0,South,11.5,-,0.00,Rain,Light Rain,170,2013-03-09 23:07:00
5:54 PM,36.0,35.1,97,29.77,3.0,SSE,10.4,-,0.02,Rain,Light Rain,160,2013-03-09 23:54:00
6:51 PM,35.6,35.6,100,29.74,2.0,SSE,9.2,-,0.01,,Overcast,160,2013-03-10 00:51:00
6:54 PM,36.0,35.1,97,29.76,2.0,SSE,9.2,-,0.01,,Overcast,150,2013-03-10 00:54:00
7:14 PM,35.6,35.6,100,29.73,4.0,SE,9.2,-,0.01,Rain,Light Rain,140,2013-03-10 01:14:00
7:33 PM,35.6,35.6,100,29.74,4.0,SSE,9.2,-,0.01,,Overcast,160,2013-03-10 01:33:00
7:54 PM,36.0,35.1,97,29.76,4.0,SSE,9.2,-,0.01,,Overcast,150,2013-03-10 01:54:00
8:38 PM,37.4,35.6,93,29.72,4.0,SE,11.5,-,0.00,Rain,Light Rain,140,2013-03-10 02:38:00
8:54 PM,37.0,36.0,96,29.74,3.0,SE,9.2,-,0.00,Rain,Light Rain,140,2013-03-10 02:54:00
9:51 PM,35.6,35.6,100,29.74,2.0,Calm,Calm,-,0.01,,Overcast,0,2013-03-10 03:51:00
9:54 PM,36.0,35.1,97,29.76,2.0,Calm,Calm,-,0.01,,Overcast,0,2013-03-10 03:54:00
10:06 PM,33.8,33.8,100,29.72,1.0,Calm,Calm,-,N/A,,Overcast,0,2013-03-10 04:06:00
10:13 PM,35.6,33.8,93,29.72,0.5,NE,4.6,-,N/A,Fog,Fog,40,2013-03-10 04:13:00
10:24 PM,33.8,33.8,100,29.73,1.0,North,3.5,-,N/A,,Overcast,360,2013-03-10 04:24:00
10:46 PM,33.8,33.8,100,29.72,0.8,Calm,Calm,-,N/A,,Overcast,0,2013-03-10 04:46:00
10:54 PM,34.0,34.0,100,29.75,0.8,Calm,Calm,-,N/A,,Overcast,0,2013-03-10 04:54:00
11:26 PM,33.8,33.8,100,29.71,0.2,ENE,6.9,-,N/A,Fog,Fog,60,2013-03-10 05:26:00
11:37 PM,33.8,33.8,100,29.70,0.5,ENE,6.9,-,0.00,Fog-Rain,Light Rain,60,2013-03-10 05:37:00
11:54 PM,34.0,34.0,100,29.72,0.5,East,6.9,-,0.01,Fog-Rain,Light Rain,80,2013-03-10 05:54:00